Content
SEND FEEDBACK

Daily
Averages
Monthly
Summary
United States of America

BEACON, NEW YORK


Home > North America > United States > New York
Elevation: 272 feet     Latitude: 41 31N     Longitude: 073 55W

WEATHER
 
SELECT A DAY
Number of Records: 196,892;   Date Range: 1/1/95 - 9/30/14
 
SHARE

PRINT THIS DATA

[ ← Previous Day ]
WEATHER ALMANAC - APRIL 24, 2013
[ Next Day → ]
[ °C ]   °F
Weather ElementAverageHighLow
Temperature55.2 °F73 °F (3:53 pm)33.1 °F (4:53 am)
Dewpoint42.4 °F48.9 °F (8:53 pm)30.9 °F (6:53 am)
Humidity66.1 %96 % (3:53 am)38 % (3:53 pm)
Barometer29.91 in30.07 in (1:53 am)29.76 in (6:53 pm)
Wind Speed5.8 mph12.7 mph (1:53 pm)
Wind Gust19.6 mph (3:53 pm)
Weather ElementAverage
Visibility9.3 mi
Wind DirectionESE (106.8 °)

Weather ElementTotal
Precipitation---
Heating Degree Days12 (Base 65)
Growing Degree Days3.1 (Base 50)
Averaged from 22 records on April 24, 2013
WEATHER CONDITIONS BREAKOUT
WIND DIRECTION BREAKOUT
WEATHER BY HOUR - APRIL 24, 2013
[ °C ]   °F
Local TimeTemperatureDewpointHumidityBarometerVisibilityWind DirectionWind SpeedGust SpeedPrecipitationEventsConditions
1:53 AM37.0 °F34.0 °F89 %30.07 in10.0 miCalmClear
2:53 AM36.0 °F34.0 °F93 %30.07 in10.0 miCalmClear
3:53 AM34.0 °F33.1 °F96 %30.05 in10.0 miCalmClear
4:53 AM33.1 °F32.0 °F96 %30.05 in8.0 miCalmClear
6:53 AM33.1 °F30.9 °F92 %30.07 in7.0 miCalmClear
7:53 AM39.9 °F37.0 °F89 %30.06 in8.0 miCalmClear
8:53 AM46.9 °F39.9 °F77 %30.03 in10.0 miCalmClear
9:53 AM53.1 °F42.1 °F66 %30.00 in10.0 miVariable4.6 mphClear
10:53 AM55.9 °F42.1 °F60 %29.97 in10.0 miVariable5.8 mphClear
11:53 AM60.1 °F42.1 °F51 %29.95 in10.0 miSW (230°)8.1 mphClear
12:53 PM64.9 °F44.1 °F47 %29.89 in10.0 miSSW (210°)6.9 mphClear
1:53 PM70.0 °F46.0 °F42 %29.86 in10.0 miSW (230°)12.7 mph17.3 mphClear
2:53 PM71.1 °F45.0 °F39 %29.82 in10.0 miSSW (200°)8.1 mphPartly Cloudy
3:53 PM73.0 °F46.0 °F38 %29.79 in10.0 miSSE (160°)11.5 mph19.6 mphClear
4:53 PM73.0 °F46.9 °F39 %29.79 in10.0 miSouth (170°)8.1 mph19.6 mphClear
5:53 PM72.0 °F46.9 °F41 %29.77 in10.0 miSSE (160°)10.4 mph17.3 mphClear
6:53 PM66.9 °F48.0 °F51 %29.76 in10.0 miSouth (170°)11.5 mph18.4 mphClear
7:53 PM63.0 °F48.0 °F58 %29.79 in10.0 miSSE (160°)8.1 mphClear
8:53 PM60.1 °F48.9 °F67 %29.81 in10.0 miSSE (160°)6.9 mphClear
9:53 PM57.9 °F48.9 °F72 %29.82 in9.0 miSouth (180°)9.2 mph17.3 mphClear
10:53 PM57.0 °F48.9 °F74 %29.81 in7.0 miSSE (160°)8.1 mphMostly Cloudy
11:53 PM55.9 °F48.9 °F77 %29.80 in6.0 miSSE (160°)8.1 mphHaze
Hourly data recorded from KPOU, located miles away from Beacon, New York







STORIES FROM OUR PARTNERS